CW6963 Weather Reports


time (UTC)temp
F
wind
direction
speed
knots
gust
knots
rain 1hr
in
rain 24hr
in
rain mn
in
humidity
%
barometer
mb
20260505214529 79 263 6.1 13.9 0.00 0.00 0.00 43 1008.0
20260505213045 79 239 7.0 18.2 0.00 0.00 0.00 41 1007.9
20260505211528 79 193 7.8 17.4 0.00 0.00 0.00 42 1007.8
20260505210030 78 73 4.3 18.2 0.00 0.00 0.00 42 1007.6
20260505204537 79 215 5.2 15.6 0.00 0.00 0.00 42 1007.7
20260505203046 79 202 6.1 13.0 0.00 0.00 0.00 42 1007.8
20260505201542 79 204 7.0 20.9 0.00 0.00 0.00 41 1007.8
20260505200040 79 200 9.6 20.0 0.00 0.00 0.00 40 1007.9
20260505194557 79 189 7.0 20.0 0.00 0.00 0.00 40 1008.1
20260505193043 79 249 7.8 20.9 0.00 0.00 0.00 39 1008.0
20260505191525 79 242 5.2 18.2 0.00 0.00 0.00 39 1008.0
20260505190033 79 197 7.0 20.0 0.00 0.00 0.00 37 1008.2
20260505184536 80 133 8.7 17.4 0.00 0.00 0.00 37 1008.4
20260505183035 80 257 7.0 19.1 0.00 0.00 0.00 39 1008.6
20260505181539 80 202 7.0 18.2 0.00 0.00 0.00 36 1008.6
20260505180043 80 212 9.6 17.4 0.00 0.00 0.00 38 1008.6
20260505174533 80 191 5.2 16.5 0.00 0.00 0.00 43 1008.8
20260505173042 79 294 6.1 19.1 0.00 0.00 0.00 42 1009.1
20260505171536 79 145 13.0 21.7 0.00 0.00 0.00 40 1009.1
20260505170036 79 257 7.0 17.4 0.00 0.00 0.00 45 1009.4
20260505164557 78 218 5.2 17.4 0.00 0.00 0.00 47 1009.6
20260505163053 77 224 6.1 16.5 0.00 0.00 0.00 47 1009.8
20260505161528 77 310 6.1 17.4 0.00 0.00 0.00 47 1009.8
20260505153048 76 257 1.7 12.2 0.00 0.00 0.00 51 1010.3
20260505151545 75 214 4.3 10.4 0.00 0.00 0.00 51 1010.4
20260505124540 63 200 4.3 8.7 0.00 0.00 0.00 70 1011.4
20260505123044 63 211 2.6 8.7 0.00 0.00 0.00 71 1011.2
20260505121529 62 237 2.6 7.8 0.00 0.00 0.00 72 1011.2
20260505120027 61 203 3.5 7.0 0.00 0.00 0.00 73 1010.9
20260505114540 60 187 4.3 8.7 0.00 0.00 0.00 74 1011.1
20260505113039 59 222 1.7 4.3 0.00 0.00 0.00 79 1010.8
20260505111550 56 237 0.9 3.5 0.00 0.00 0.00 84 1010.8
20260505091534 56 305 0.0 0.0 0.00 0.00 0.00 82 1010.5
20260505090053 58 305 0.0 1.7 0.00 0.00 0.00 77 1010.5
20260505084546 57 231 0.0 0.9 0.00 0.00 0.00 77 1010.2
20260505083047 58 231 0.0 1.7 0.00 0.00 0.00 75 1010.0
20260505081549 58 191 0.0 3.5 0.00 0.00 0.00 74 1010.2
20260505080048 59 252 0.0 3.5 0.00 0.00 0.00 71 1010.0
20260505074525 60 238 2.6 6.1 0.00 0.00 0.00 71 1010.2
20260505073026 59 258 2.6 7.0 0.00 0.00 0.00 71 1010.3
20260505071531 59 225 2.6 6.1 0.00 0.00 0.00 71 1010.1
20260505070034 59 228 2.6 6.1 0.00 0.00 0.00 71 1010.2
20260505064537 58 261 0.9 5.2 0.00 0.00 0.00 70 1010.1
20260505063041 58 242 0.9 4.3 0.00 0.00 0.00 70 1010.2
20260505061615 58 234 0.9 5.2 0.00 0.00 0.00 69 1010.3
20260505060051 57 233 1.7 4.3 0.00 0.00 0.00 69 1010.4
20260505054557 58 266 0.0 5.2 0.00 0.00 0.00 67 1010.3
20260505053045 58 218 0.9 4.3 0.00 0.00 0.00 67 1010.3
20260505051531 58 259 0.0 3.5 0.00 0.00 0.00 67 1010.2
20260505041538 58 199 1.7 5.2 0.00 0.00 0.00 64 1010.3
20260505040145 57 214 0.0 3.5 0.00 0.00 0.00 66 1010.2
20260505034545 56 277 0.0 0.0 0.00 0.00 0.00 67 1010.1
20260505033051 56 295 0.0 0.9 0.00 0.00 0.00 66 1010.1
20260505031526 57 295 0.0 0.0 0.00 0.00 0.00 65 1010.3
20260505030047 57 214 0.0 0.9 0.00 0.00 0.00 64 1010.3
20260505024605 58 214 0.0 1.7 0.00 0.00 0.00 64 1010.3
20260505023038 58 270 0.0 3.5 0.00 0.00 0.00 63 1010.5
20260505021546 58 73 0.0 0.9 0.00 0.00 0.00 62 1010.6
20260505020030 59 73 0.0 0.9 0.00 0.00 0.00 61 1010.7
20260505014533 60 73 0.0 0.9 0.00 0.00 0.00 58 1010.5
20260505013038 61 242 0.0 1.7 0.00 0.00 0.00 56 1010.4
20260505011550 62 243 0.0 3.5 0.00 0.00 0.00 55 1010.3
20260505010043 63 293 0.0 1.7 0.00 0.00 0.00 53 1010.1
20260505004544 63 239 0.9 4.3 0.00 0.00 0.00 53 1010.0
20260505003042 64 243 0.0 0.9 0.00 0.00 0.00 52 1009.9
20260505001531 65 230 0.0 5.2 0.00 0.00 0.00 49 1009.8
20260505000027 66 207 0.0 6.1 0.00 0.00 0.00 48 1009.7
20260504234528 67 197 2.6 6.1 0.00 0.00 0.00 46 1009.7
20260504233034 68 270 3.5 8.7 0.00 0.00 0.00 44 1009.4
20260504231534 68 264 3.5 13.0 0.00 0.00 0.00 44 1009.4
20260504230038 69 221 7.0 12.2 0.00 0.00 0.00 43 1009.3
20260504224540 69 199 2.6 11.3 0.00 0.00 0.00 43 1009.2
20260504223037 70 195 3.5 12.2 0.00 0.00 0.00 44 1009.2
20260504221547 70 241 6.1 10.4 0.00 0.00 0.00 44 1009.4